Theta_e
337 344 350 351 349 349 349 349 350 350 349 348 347 348 348 348 348 348 349 349 349 347 346 346 347 348 348 349 351 349 346 343 345 346 347 347 347 348 347 346 346 342 346
339 345 347 350 350 349 348 348 349 349 349 347 347 347 347 347 347 348 347 347 348 346 345 345 346 347 347 347 347 345 343 342 343 345 345 348 348 346 346 345 345 341 343
341 345 346 348 349 349 348 348 348 348 347 347 347 346 346 346 346 346 346 346 346 345 345 343 344 345 347 347 346 345 342 342 343 343 345 340 339 347 346 344 346 343 343
342 343 344 344 348 348 347 347 346 346 345 346 346 346 345 345 345 346 345 345 344 344 343 343 342 343 346 346 346 345 344 342 343 342 340 338 338 346 346 345 344 343 341
341 342 342 343 347 347 347 346 345 344 343 343 343 343 343 344 344 344 344 344 344 344 343 342 343 343 345 346 346 345 345 343 341 340 336 336 335 342 345 345 345 343 342
335 340 341 344 346 345 345 344 344 343 343 342 342 341 341 341 342 343 343 343 342 343 342 343 342 344 347 345 345 344 344 343 340 336 335 335 335 341 345 344 343 342 341
328 335 338 339 342 343 343 343 343 342 342 342 341 341 340 340 340 340 341 341 341 341 341 341 341 344 345 344 345 344 342 340 336 333 333 333 334 343 345 344 342 342 341
319 321 330 330 335 338 339 338 338 338 337 337 338 339 340 340 340 341 341 341 341 341 340 341 343 343 343 343 343 342 340 336 334 333 333 332 334 342 345 344 342 341 341
315 315 315 318 324 329 331 331 329 328 325 324 325 327 327 329 331 333 334 336 339 340 340 340 342 342 342 343 342 339 336 334 333 334 334 333 335 341 345 345 342 341 341
308 311 312 311 311 312 314 321 322 324 323 322 321 321 319 319 320 320 322 326 330 334 337 339 338 339 340 340 339 336 332 332 333 333 333 332 334 341 343 345 342 342 342
305 305 305 307 309 310 312 314 318 320 320 317 315 317 313 311 312 314 318 320 321 320 323 331 335 337 335 332 333 331 328 331 332 332 332 332 336 339 340 344 342 342 342
300 302 303 302 304 307 311 308 308 310 309 309 308 308 309 308 309 312 311 316 316 317 318 319 321 330 329 330 330 329 330 329 330 331 332 332 335 338 339 343 343 341 342
300 302 302 302 303 304 305 304 305 304 304 306 305 305 307 306 305 306 306 307 307 311 309 311 310 316 323 327 328 329 329 328 329 330 330 330 335 338 339 342 343 340 342
299 301 302 303 303 302 302 302 302 303 302 303 303 305 304 303 303 303 303 304 305 306 307 308 308 309 310 317 324 328 329 330 330 331 329 325 331 337 339 341 342 342 341
298 300 301 302 302 302 302 300 300 300 300 301 301 302 302 300 299 300 300 301 301 303 304 305 307 308 309 309 312 316 321 328 329 330 330 322 325 333 338 339 340 340 340
298 299 301 301 301 301 299 299 298 298 299 299 299 299 300 300 298 298 298 299 299 300 301 302 304 305 307 308 309 310 311 313 318 327 329 329 325 329 334 337 338 340 340
298 300 300 299 299 298 298 297 297 297 298 297 297 298 298 299 298 297 296 296 297 299 299 300 300 302 304 306 306 308 308 309 310 312 318 328 328 324 327 334 336 339 340
297 299 299 301 298 297 296 296 296 296 295 295 295 296 296 297 297 295 295 295 296 297 297 297 297 298 300 302 303 304 305 306 307 308 311 315 323 327 325 327 332 334 338
297 296 296 297 297 296 295 295 294 294 294 293 292 293 294 296 296 294 294 294 295 294 294 295 295 295 296 297 299 301 303 304 305 307 307 308 310 314 327 326 324 325 331
295 295 295 296 295 295 294 292 292 291 291 291 291 292 294 294 294 293 293 293 294 293 293 294 293 294 294 295 298 298 300 302 303 303 305 307 307 309 313 325 326 324 323
293 293 294 293 293 292 290 289 288 287 289 289 290 292 292 293 294 292 292 292 292 292 292 292 292 292 292 294 294 294 297 299 301 302 304 304 305 307 309 312 323 326 326
292 292 292 293 292 291 290 289 288 287 288 288 290 290 291 291 292 292 291 290 291 290 290 290 291 290 291 293 291 292 289 293 295 299 301 302 301 303 305 307 314 324 325
290 291 292 292 291 290 290 289 288 287 287 287 287 288 289 290 291 290 290 290 290 290 289 290 290 289 288 290 292 292 289 289 293 295 296 298 299 300 302 306 310 317 323
290 291 291 291 290 290 289 288 286 284 283 285 285 287 287 289 289 289 289 289 289 289 289 291 292 291 291 289 291 293 293 294 290 289 292 294 297 299 300 301 307 312 319
290 290 290 289 289 288 288 287 285 284 285 285 285 285 285 287 287 288 288 288 288 289 290 290 290 290 291 289 289 290 291 291 291 289 287 291 293 294 298 300 301 304 308
289 289 289 288 288 288 287 286 285 284 284 283 283 283 284 285 285 286 287 287 287 288 288 289 289 289 289 290 290 290 289 289 289 290 289 290 292 293 295 296 298 301 306
Wind_Speed
3 5 10 10 11 10 10 9 8 8 9 9 9 8 9 10 10 11 11 10 8 7 7 5 7 10 7 8 9 9 8 7 6 6 5 9 10 11 12 12 10 7 11
8 8 10 10 11 11 10 10 8 7 7 8 9 8 8 8 8 9 9 9 8 7 5 5 5 9 8 9 9 7 6 6 6 6 5 8 9 12 14 13 10 9 11
8 9 7 10 10 11 10 9 8 8 8 8 7 7 7 7 7 7 7 7 6 6 5 3 4 6 6 7 8 9 8 8 8 6 7 5 4 13 14 14 13 12 12
9 6 6 9 9 10 9 8 7 7 8 8 7 7 6 5 5 5 4 4 3 3 2 2 1 2 6 9 9 9 8 8 8 8 5 4 5 13 15 16 15 15 12
8 7 6 9 9 9 8 8 7 6 6 6 5 5 4 4 3 2 1 1 1 2 2 3 2 2 4 6 7 9 9 10 10 7 5 5 4 9 15 17 15 14 14
7 6 8 10 10 10 8 7 6 5 5 4 3 2 2 1 1 1 1 1 2 4 4 5 6 6 5 6 7 8 9 9 9 6 5 6 6 11 17 18 14 13 12
6 7 8 10 10 10 10 10 9 8 8 7 5 2 0 1 1 2 3 4 4 5 6 7 8 7 6 8 9 10 11 11 7 6 6 6 6 16 18 19 17 16 16
8 5 6 8 9 9 10 10 9 9 9 8 8 8 6 6 6 5 5 6 6 7 7 8 9 8 8 8 10 11 11 11 7 7 7 6 10 17 19 18 19 18 16
7 6 5 6 8 10 10 9 10 11 12 11 11 12 12 11 10 10 10 8 8 9 9 9 10 9 10 10 9 10 12 11 7 7 8 7 12 18 21 19 20 20 19
6 6 6 6 6 6 5 10 10 11 11 12 11 10 9 9 9 10 9 9 10 10 11 10 11 11 11 11 11 11 10 13 10 8 7 7 15 21 21 22 21 23 22
4 6 6 6 6 6 6 5 7 8 9 8 8 9 6 4 5 5 6 9 10 12 13 13 13 12 10 8 9 10 9 4 6 7 6 12 17 20 22 20 21 23 23
6 4 6 7 6 5 4 5 4 4 3 3 4 5 4 5 5 6 6 9 10 11 12 13 15 14 9 5 4 6 4 5 5 7 7 15 18 22 24 19 22 24 25
7 4 6 7 6 6 5 3 2 2 2 3 5 6 5 4 4 4 4 4 4 6 4 6 6 4 7 7 6 5 6 6 5 6 10 14 19 23 23 20 21 23 26
7 7 7 7 6 5 3 3 2 2 2 3 4 6 4 3 5 5 4 5 5 4 6 5 4 6 6 6 9 9 8 8 6 6 9 14 18 23 25 25 22 23 27
8 7 7 7 7 5 5 2 2 2 3 3 4 5 4 3 3 4 4 4 4 4 4 5 5 6 7 7 6 7 10 9 11 8 7 13 16 21 26 27 25 25 28
8 8 7 7 6 6 4 3 2 3 3 3 3 3 5 3 3 3 4 4 4 4 4 5 6 6 7 7 9 7 7 8 10 11 9 10 17 20 23 26 26 26 28
7 8 8 8 7 7 5 3 2 2 3 3 3 4 4 4 4 4 3 4 4 4 6 5 6 5 6 6 8 9 7 8 8 10 10 9 11 20 23 26 27 26 26
9 9 8 7 7 6 5 3 1 3 3 3 3 4 5 5 5 4 4 4 4 4 4 4 4 5 5 5 7 7 7 8 9 10 9 9 10 11 15 23 24 28 27
10 10 8 7 7 6 4 3 2 4 3 3 4 4 6 5 5 4 4 4 4 3 4 5 6 4 6 6 7 7 7 7 8 8 10 10 12 11 9 14 20 24 27
9 8 8 6 7 5 4 2 3 2 2 4 4 4 6 5 6 5 4 5 4 3 3 3 5 5 5 7 8 9 8 8 8 9 10 9 10 12 12 15 13 14 24
7 8 8 8 5 3 2 2 3 2 3 2 4 5 5 5 5 5 4 4 4 4 5 5 6 7 5 4 7 6 6 7 11 10 9 9 11 12 14 13 10 9 11
9 8 8 7 6 4 3 2 2 1 2 3 2 4 5 5 6 6 5 5 5 4 5 4 4 6 4 3 3 6 6 4 3 7 6 5 6 6 9 11 14 14 13
9 9 8 7 7 5 5 3 3 2 2 3 3 3 3 5 5 5 5 5 5 5 4 4 5 6 6 4 5 4 4 4 9 2 1 4 5 3 5 6 11 14 14
9 8 8 7 7 5 5 4 3 2 2 3 3 3 4 6 6 5 5 5 5 4 7 6 7 7 7 8 7 6 6 8 5 9 3 5 8 8 6 5 5 8 10
10 9 8 7 6 5 6 5 3 3 3 2 3 5 6 5 6 5 5 5 6 6 6 8 8 8 6 7 6 6 9 8 8 9 16 9 6 5 8 8 10 8 9
7 8 7 8 6 6 5 4 4 4 4 3 3 4 4 4 4 5 6 5 5 6 7 7 8 9 8 8 7 8 8 7 6 7 9 11 12 7 4 4 5 5 7
Wind_Direction
185 173 146 138 135 126 116 124 135 130 127 122 110 101 93 88 81 75 76 76 79 98 115 136 165 176 159 125 145 144 142 137 138 144 159 152 143 136 133 125 115 117 128
143 155 146 143 142 133 121 117 114 120 126 125 117 112 102 92 87 86 81 78 74 83 87 121 163 184 189 169 146 144 143 145 150 154 159 150 154 151 143 133 129 133 125
144 143 139 139 141 131 125 118 115 112 113 124 115 114 113 110 105 97 86 82 78 76 82 110 163 185 208 199 174 161 161 162 162 171 182 155 171 162 152 150 148 145 142
133 121 130 134 133 133 131 128 122 117 117 114 117 117 112 108 110 105 107 102 87 74 52 74 30 226 194 193 190 179 176 173 175 177 170 181 195 183 168 167 164 155 157
94 98 114 124 128 133 132 131 131 127 119 116 119 119 120 119 117 110 105 87 61 345 322 298 276 241 241 231 211 200 190 182 186 194 194 184 204 212 187 182 175 169 161
77 92 109 109 114 119 119 132 139 136 125 121 127 136 135 122 177 206 237 280 300 289 275 271 276 287 248 240 226 213 209 200 197 201 201 208 195 218 203 197 179 168 178
99 114 122 125 120 116 108 100 94 91 85 76 68 42 334 222 252 251 250 241 247 255 265 270 271 270 279 269 243 226 216 211 196 201 215 209 206 218 216 198 190 183 183
116 98 89 86 103 106 107 104 105 102 94 84 66 52 45 33 16 359 331 312 297 280 268 267 263 254 255 256 272 244 235 224 211 207 209 213 215 220 223 212 193 191 188
112 107 101 93 90 86 89 90 89 87 80 73 67 57 52 44 38 29 22 1 329 307 298 297 287 256 250 253 247 251 240 236 229 223 218 216 218 226 228 219 199 199 195
126 126 122 104 95 91 85 89 85 81 78 74 72 68 64 52 42 29 20 6 5 349 324 300 302 303 269 256 249 251 240 224 229 235 229 229 213 225 234 228 208 201 201
122 129 127 121 112 108 102 88 77 79 75 65 52 45 46 39 29 25 8 4 358 351 345 333 312 294 296 301 279 266 253 234 228 228 232 235 227 228 231 232 221 203 205
151 150 130 121 130 126 102 98 90 78 68 70 57 36 22 17 3 359 354 349 349 339 337 334 331 325 298 272 264 264 251 233 225 234 230 233 234 238 238 241 221 210 205
163 151 146 129 126 121 116 109 82 70 50 36 29 18 10 7 357 351 344 341 337 333 327 325 325 319 314 304 277 259 240 228 239 234 239 233 238 240 241 242 224 222 204
164 162 157 137 123 110 102 93 96 66 47 39 16 26 21 7 353 347 341 331 332 334 322 314 306 298 290 293 300 278 254 241 237 233 234 233 237 241 242 242 234 221 212
160 168 166 142 130 127 115 105 78 59 52 31 26 17 25 4 344 331 325 328 327 327 318 315 307 306 299 291 281 291 303 275 240 229 235 230 231 240 245 246 240 224 217
158 168 159 140 134 123 107 93 66 43 33 32 18 359 352 353 338 330 327 326 326 329 321 312 308 303 295 291 289 275 275 285 294 287 237 231 233 238 241 245 246 230 222
171 152 151 139 129 118 111 88 55 11 30 16 345 348 350 351 345 337 318 312 313 319 314 314 315 310 299 294 282 278 271 268 271 281 283 269 242 231 233 241 243 244 228
144 151 151 135 132 123 120 99 30 23 18 6 5 1 353 349 352 339 325 316 311 312 308 309 305 304 302 293 291 283 279 272 271 271 274 276 287 246 226 232 240 237 235
153 145 137 136 135 131 114 92 56 32 31 15 356 351 343 338 331 325 308 299 305 300 302 308 310 292 301 297 288 282 270 266 268 268 265 269 274 277 265 239 234 246 243
140 139 135 132 131 118 97 67 57 44 32 5 350 330 336 332 326 322 305 303 303 295 295 299 307 302 287 286 293 292 277 263 259 254 257 256 260 269 266 270 240 237 241
135 142 143 134 140 114 74 64 39 13 343 337 333 340 346 333 328 317 299 305 301 296 294 292 301 297 297 292 302 286 272 264 250 245 240 241 248 247 253 255 265 238 237
152 151 145 138 135 117 118 120 107 82 299 273 311 321 322 330 320 317 313 298 288 286 287 284 284 298 290 285 298 303 305 316 295 252 250 249 255 255 263 262 259 250 245
156 161 150 149 142 139 133 105 63 22 348 332 320 301 307 310 305 303 306 312 308 289 270 267 274 279 287 284 255 267 308 282 346 306 308 251 257 259 263 269 270 259 248
171 152 142 145 143 137 121 96 115 183 245 243 271 285 302 299 296 301 303 303 300 305 309 308 299 298 312 305 304 268 264 295 300 301 329 318 303 292 277 273 289 301 289
151 151 147 144 135 136 126 128 154 219 242 275 307 310 303 300 298 297 296 304 317 309 305 309 305 296 285 283 284 292 290 276 264 271 288 289 292 296 295 285 279 276 288
144 142 148 147 151 149 137 149 184 224 273 303 300 293 281 281 287 290 293 297 293 299 298 297 295 289 288 281 275 272 273 276 283 284 283 294 295 289 274 286 274 280 281